GW6868 Weather Reports


time (UTC)temp
F
wind
direction
speed
knots
gust
knots
rain 1hr
in
rain 24hr
in
rain mn
in
humidity
%
barometer
mb
20260506103738 61 141 0.9 0.9 0.00 0.00 0.00 74 1017.0
20260506103235 61 142 0.9 1.7 0.00 0.00 0.00 74 1017.0
20260506102733 61 173 1.7 1.7 0.00 0.00 0.00 75 1017.1
20260506102231 61 120 0.0 0.9 0.00 0.00 0.00 74 1017.0
20260506101727 61 170 0.9 1.7 0.00 0.00 0.00 74 1017.0
20260506101224 61 319 2.6 2.6 0.00 0.00 0.00 74 1017.1
20260506100722 61 164 0.9 0.9 0.00 0.00 0.00 75 1017.0
20260506100220 61 223 1.7 2.6 0.00 0.00 0.00 74 1016.8
20260506095718 61 197 1.7 3.5 0.00 0.00 0.00 74 1016.8
20260506095214 61 156 2.6 3.5 0.00 0.00 0.00 74 1016.9
20260506094712 61 144 0.9 0.9 0.00 0.00 0.00 74 1016.8
20260506094210 61 133 1.7 2.6 0.00 0.00 0.00 75 1017.0
20260506093708 61 278 0.9 1.7 0.00 0.00 0.00 75 1017.0
20260506093204 61 121 0.9 0.9 0.00 0.00 0.00 75 1016.8
20260506092702 61 124 0.9 0.9 0.00 0.00 0.00 74 1016.6
20260506092200 61 168 1.7 1.7 0.00 0.00 0.00 74 1016.8
20260506091658 61 164 1.7 2.6 0.00 0.00 0.00 74 1016.7
20260506091155 61 202 4.3 5.2 0.00 0.00 0.00 74 1016.9
20260506090652 61 161 1.7 1.7 0.00 0.00 0.00 75 1016.7
20260506090149 61 124 0.9 0.9 0.00 0.00 0.00 74 1016.9
20260506085646 61 156 0.9 1.7 0.00 0.00 0.00 75 1016.9
20260506085142 61 114 0.0 0.9 0.00 0.00 0.00 75 1016.9
20260506084638 61 123 0.0 0.0 0.00 0.00 0.00 75 1016.9
20260506084136 61 158 0.9 0.9 0.00 0.00 0.00 75 1017.1
20260506083632 61 270 1.7 1.7 0.00 0.00 0.00 76 1016.9
20260506083130 61 238 1.7 1.7 0.00 0.00 0.00 75 1016.9
20260506082626 61 128 0.9 0.9 0.00 0.00 0.00 75 1016.8
20260506082122 61 133 1.7 1.7 0.00 0.00 0.00 76 1016.8
20260506081621 61 226 0.9 0.9 0.00 0.00 0.00 76 1016.7
20260506081118 61 169 0.0 0.9 0.00 0.00 0.00 76 1016.6
20260506080616 61 91 0.9 0.9 0.00 0.00 0.00 76 1016.7
20260506080112 61 112 0.9 0.9 0.00 0.00 0.00 75 1016.7
20260506073056 61 19 1.7 2.6 0.00 0.00 0.00 75 1016.5
20260506072552 61 233 1.7 1.7 0.00 0.00 0.00 75 1016.5
20260506072050 61 204 2.6 2.6 0.00 0.00 0.00 75 1016.3
20260506071548 61 117 0.0 0.9 0.00 0.00 0.00 75 1016.2
20260506071045 61 148 2.6 2.6 0.00 0.00 0.00 75 1016.3
20260506070542 61 241 2.6 6.1 0.00 0.00 0.00 75 1016.4
20260506062016 60 290 3.5 3.5 0.00 0.00 0.00 75 1016.0
20260506061512 60 161 0.9 0.9 0.00 0.00 0.00 75 1016.3
20260506061010 60 211 5.2 6.1 0.00 0.00 0.00 75 1016.2
20260506060508 60 196 4.3 6.1 0.00 0.00 0.00 75 1016.0
20260506050937 59 109 0.9 0.9 0.00 0.00 0.00 77 1015.8
20260506050435 59 150 0.9 0.9 0.00 0.00 0.00 77 1015.6
20260506044925 59 187 0.9 0.9 0.00 0.00 0.00 78 1015.5
20260506044424 59 110 0.0 0.9 0.00 0.00 0.00 78 1015.3
20260506043920 60 99 0.9 0.9 0.00 0.00 0.00 77 1015.3
20260506043417 59 125 0.0 0.9 0.00 0.00 0.00 78 1015.4
20260506042915 59 122 0.9 0.9 0.00 0.00 0.00 78 1015.5
20260506042414 59 119 0.0 0.0 0.00 0.00 0.00 78 1015.3
20260506041912 60 130 0.9 0.9 0.00 0.00 0.00 78 1015.3
20260506041409 60 107 1.7 2.6 0.00 0.00 0.00 77 1015.1
20260506040906 60 131 2.6 2.6 0.00 0.00 0.00 77 1015.0
20260506040404 60 119 0.0 0.0 0.00 0.00 0.00 77 1015.1
20260506035859 60 111 0.9 1.7 0.00 0.00 0.00 76 1015.0
20260506035357 60 122 1.7 1.7 0.00 0.00 0.00 76 1015.0
20260506034854 60 136 4.3 6.1 0.00 0.00 0.00 76 1014.8
20260506034351 61 244 1.7 2.6 0.00 0.00 0.00 75 1014.8
20260506033848 61 109 2.6 3.5 0.00 0.00 0.00 75 1014.5
20260506033345 61 88 0.0 0.0 0.00 0.00 0.00 75 1014.6
20260506032842 61 108 0.9 0.9 0.00 0.00 0.00 75 1014.5
20260506032339 61 149 1.7 2.6 0.00 0.00 0.00 75 1014.4
20260506031836 61 124 1.7 2.6 0.00 0.00 0.00 75 1014.3
20260506031333 61 120 7.8 11.3 0.00 0.00 0.00 74 1014.4
20260506030831 61 87 2.6 2.6 0.00 0.00 0.00 74 1014.0
20260506030329 61 116 0.9 0.9 0.00 0.00 0.00 74 1013.9
20260506025825 62 82 1.7 2.6 0.00 0.00 0.00 73 1013.9
20260506025321 62 281 1.7 3.5 0.00 0.00 0.00 73 1014.1
20260506024819 62 105 0.9 1.7 0.00 0.00 0.00 73 1014.1
20260506024315 62 188 1.7 1.7 0.00 0.00 0.00 72 1014.0
20260506023811 62 182 0.9 0.9 0.00 0.00 0.00 72 1013.9
20260506023309 62 192 3.5 5.2 0.00 0.00 0.00 72 1013.9
20260506022805 62 39 0.9 0.9 0.00 0.00 0.00 72 1013.8
20260506022305 63 88 1.7 2.6 0.00 0.00 0.00 71 1013.8
20260506021801 63 201 2.6 3.5 0.00 0.00 0.00 71 1013.9
20260506021258 63 258 2.6 3.5 0.00 0.00 0.00 71 1013.7
20260506020754 64 316 1.7 2.6 0.00 0.00 0.00 70 1013.8
20260506020252 64 165 3.5 5.2 0.00 0.00 0.00 69 1013.6
20260506015750 65 200 1.7 2.6 0.00 0.00 0.00 68 1013.6
20260506015247 65 205 4.3 6.1 0.00 0.00 0.00 68 1013.7
20260506014743 65 93 2.6 5.2 0.00 0.00 0.00 66 1013.6
20260506014240 65 118 1.7 3.5 0.00 0.00 0.00 67 1013.1
20260506013737 65 122 3.5 5.2 0.00 0.00 0.00 67 1013.5
20260506013234 66 155 4.3 13.0 0.00 0.00 0.00 67 1013.4
20260506012731 66 111 2.6 5.2 0.00 0.00 0.00 67 1013.4
20260506012228 67 193 3.5 3.5 0.00 0.00 0.00 65 1013.5
20260506011725 66 96 2.6 3.5 0.00 0.00 0.00 65 1013.3
20260506011221 67 141 0.9 0.9 0.00 0.00 0.00 65 1013.3
20260506010720 67 143 1.7 2.6 0.00 0.00 0.00 66 1013.0
20260506010217 68 184 2.6 5.2 0.00 0.00 0.00 63 1013.1
20260506005714 67 151 3.5 5.2 0.00 0.00 0.00 64 1013.1
20260506005211 68 111 1.7 3.5 0.00 0.00 0.00 62 1013.4
20260506004706 68 117 1.7 2.6 0.00 0.00 0.00 63 1013.3
20260506004204 68 132 1.7 2.6 0.00 0.00 0.00 62 1013.1
20260506003700 68 113 1.7 2.6 0.00 0.00 0.00 62 1013.0
20260506003157 68 167 0.9 1.7 0.00 0.00 0.00 62 1013.1
20260506002652 69 190 1.7 2.6 0.00 0.00 0.00 61 1013.4
20260506002149 69 83 1.7 2.6 0.00 0.00 0.00 62 1013.4
20260506001644 69 119 2.6 3.5 0.00 0.00 0.00 61 1013.0
20260506001142 69 180 0.9 1.7 0.00 0.00 0.00 61 1013.3
20260506000639 69 251 5.2 7.0 0.00 0.00 0.00 62 1013.3
20260506000136 70 202 1.7 2.6 0.00 0.00 0.00 60 1013.4
20260505235634 69 205 1.7 1.7 0.00 0.00 0.00 62 1013.4
20260505235131 70 129 1.7 1.7 0.00 0.00 0.00 60 1013.5
20260505234628 70 199 0.9 1.7 0.00 0.00 0.00 60 1013.4
20260505234125 70 250 2.6 3.5 0.00 0.00 0.00 60 1013.5
20260505233622 70 99 0.9 0.9 0.00 0.00 0.00 59 1013.5
20260505233120 70 190 1.7 1.7 0.00 0.00 0.00 60 1013.6
20260505232617 70 218 3.5 5.2 0.00 0.00 0.00 60 1013.4
20260505232115 70 188 1.7 1.7 0.00 0.00 0.00 60 1013.7
20260505231611 71 207 1.7 2.6 0.00 0.00 0.00 59 1013.8
20260505231110 70 184 1.7 1.7 0.00 0.00 0.00 60 1013.6
20260505230608 71 299 1.7 2.6 0.00 0.00 0.00 60 1013.5
20260505225600 70 101 3.5 6.1 0.00 0.00 0.00 59 1013.6
20260505225056 69 119 0.0 0.0 0.00 0.00 0.00 60 1013.7
20260505224553 69 101 2.6 3.5 0.00 0.00 0.00 60 1013.5
20260505224051 70 161 2.6 5.2 0.00 0.00 0.00 60 1013.8
20260505223548 70 113 0.9 1.7 0.00 0.00 0.00 60 1013.8
20260505223044 69 202 2.6 5.2 0.00 0.00 0.00 60 1013.9
20260505222540 70 266 4.3 5.2 0.00 0.00 0.00 60 1013.7
20260505222037 69 203 2.6 3.5 0.00 0.00 0.00 62 1014.0
20260505221534 69 192 3.5 6.1 0.00 0.00 0.00 60 1013.6
20260505221030 70 146 1.7 3.5 0.00 0.00 0.00 60 1013.8
20260505220527 70 59 1.7 2.6 0.00 0.00 0.00 60 1013.8
20260505220025 70 79 3.5 5.2 0.00 0.00 0.00 60 1013.9
20260505215523 69 204 1.7 2.6 0.00 0.00 0.00 60 1014.0
20260505215021 69 142 2.6 3.5 0.00 0.00 0.00 61 1014.0
20260505214519 69 99 3.5 3.5 0.00 0.00 0.00 60 1014.2
20260505214015 69 248 5.2 7.8 0.00 0.00 0.00 60 1014.0
20260505213513 69 132 2.6 3.5 0.00 0.00 0.00 61 1014.2
20260505213009 68 154 1.7 2.6 0.00 0.00 0.00 61 1014.2
20260505212506 69 144 2.6 3.5 0.00 0.00 0.00 61 1014.2
20260505212003 69 137 1.7 2.6 0.00 0.00 0.00 61 1014.3
20260505211500 69 251 4.3 5.2 0.00 0.00 0.00 63 1014.4
20260505210956 69 104 3.5 5.2 0.00 0.00 0.00 60 1014.2
20260505210453 68 119 1.7 2.6 0.00 0.00 0.00 62 1014.4
20260505205950 70 166 2.6 3.5 0.00 0.00 0.00 61 1014.4
20260505205449 68 197 3.5 5.2 0.00 0.00 0.00 63 1014.5
20260505204945 68 259 4.3 5.2 0.00 0.00 0.00 61 1014.4
20260505204443 68 211 3.5 3.5 0.00 0.00 0.00 63 1014.5
20260505203940 68 106 3.5 3.5 0.00 0.00 0.00 62 1014.6
20260505203436 69 83 1.7 1.7 0.00 0.00 0.00 62 1014.6
20260505202933 68 194 1.7 1.7 0.00 0.00 0.00 62 1014.6
20260505202429 68 215 0.9 1.7 0.00 0.00 0.00 63 1014.9
20260505201926 67 115 2.6 3.5 0.00 0.00 0.00 63 1014.8
20260505201422 67 311 1.7 1.7 0.00 0.00 0.00 64 1014.9
20260505200921 68 137 3.5 6.1 0.00 0.00 0.00 62 1014.9
20260505200418 68 111 0.9 1.7 0.00 0.00 0.00 63 1014.7
20260505195913 68 143 1.7 2.6 0.00 0.00 0.00 63 1014.9
20260505195411 67 131 1.7 2.6 0.00 0.00 0.00 63 1015.0
20260505194908 68 130 1.7 1.7 0.00 0.00 0.00 64 1015.0
20260505194406 66 139 0.0 0.9 0.00 0.00 0.00 65 1014.9
20260505193905 68 254 2.6 2.6 0.00 0.00 0.00 64 1014.9
20260505193403 67 101 1.7 2.6 0.00 0.00 0.00 64 1014.8
20260505192901 67 49 2.6 3.5 0.00 0.00 0.00 63 1015.0
20260505192359 66 142 1.7 1.7 0.00 0.00 0.00 65 1015.1
20260505191856 66 196 3.5 5.2 0.00 0.00 0.00 66 1015.2
20260505191355 64 218 1.7 2.6 0.00 0.00 0.00 68 1015.2
20260505190851 64 246 4.3 6.1 0.00 0.00 0.00 68 1015.1
20260505190347 64 237 4.3 7.8 0.00 0.00 0.00 68 1015.4
20260505185842 63 213 2.6 5.2 0.00 0.00 0.00 70 1015.3
20260505185339 64 211 3.5 3.5 0.00 0.00 0.00 69 1015.2
20260505184835 64 215 5.2 7.0 0.00 0.00 0.00 69 1015.3
20260505184332 64 309 1.7 3.5 0.00 0.00 0.00 70 1015.2
20260505183829 64 127 1.7 1.7 0.00 0.00 0.00 70 1015.4
20260505183326 63 163 5.2 8.7 0.00 0.00 0.00 71 1015.1
20260505182823 63 110 0.9 0.9 0.00 0.00 0.00 70 1015.4
20260505182320 63 143 1.7 2.6 0.00 0.00 0.00 71 1015.4
20260505181817 63 223 1.7 3.5 0.00 0.00 0.00 71 1015.4
20260505181314 62 169 0.9 1.7 0.00 0.00 0.00 74 1015.5
20260505180810 62 117 0.9 1.7 0.00 0.00 0.00 74 1015.2
20260505180307 62 276 2.6 3.5 0.00 0.00 0.00 73 1015.3
20260505175803 61 186 2.6 3.5 0.00 0.00 0.00 74 1015.4
20260505175300 62 186 1.7 2.6 0.00 0.00 0.00 74 1015.3
20260505174756 61 283 1.7 1.7 0.00 0.00 0.00 74 1015.5
20260505174254 61 116 1.7 2.6 0.00 0.00 0.00 74 1015.5
20260505173749 61 146 0.0 0.9 0.00 0.00 0.00 75 1015.5
20260505173246 60 333 3.5 3.5 0.00 0.00 0.00 76 1015.3
20260505172743 60 157 1.7 2.6 0.00 0.00 0.00 76 1015.5
20260505172240 60 231 1.7 1.7 0.00 0.00 0.00 77 1015.2
20260505171740 60 220 5.2 7.0 0.00 0.00 0.00 76 1015.3
20260505171237 60 158 0.9 0.9 0.00 0.00 0.00 77 1015.3
20260505170734 60 132 1.7 2.6 0.00 0.00 0.00 77 1015.3
20260505170231 60 132 3.5 5.2 0.00 0.00 0.00 77 1015.1
20260505165726 59 127 1.7 1.7 0.00 0.00 0.00 77 1015.3
20260505165222 59 111 0.9 1.7 0.00 0.00 0.00 78 1015.3
20260505164718 59 208 0.9 1.7 0.00 0.00 0.00 77 1015.2
20260505164215 59 235 4.3 7.0 0.00 0.00 0.00 77 1015.1
20260505163714 59 211 2.6 3.5 0.00 0.00 0.00 77 1015.2
20260505163212 59 32 0.9 1.7 0.00 0.00 0.00 79 1015.3
20260505162709 59 301 0.9 1.7 0.00 0.00 0.00 77 1015.2
20260505162206 59 96 0.9 1.7 0.00 0.00 0.00 78 1015.3
20260505161703 59 62 0.9 0.9 0.00 0.00 0.00 79 1015.1
20260505161200 58 257 0.9 0.9 0.00 0.00 0.00 79 1014.8
20260505160658 58 89 1.7 1.7 0.00 0.00 0.00 79 1015.1
20260505160155 58 175 0.9 1.7 0.00 0.00 0.00 80 1015.2
20260505153134 58 117 0.9 0.9 0.00 0.00 0.00 80 1015.2
20260505152631 58 100 0.9 0.9 0.00 0.00 0.00 80 1014.9
20260505152127 57 189 1.7 2.6 0.00 0.00 0.00 80 1015.0
20260505151622 57 46 0.9 0.9 0.00 0.00 0.00 80 1014.9
20260505151120 58 301 2.6 2.6 0.00 0.00 0.00 80 1014.7
20260505150616 57 109 0.9 0.9 0.00 0.00 0.00 80 1014.8
20260505150113 58 93 0.0 0.0 0.00 0.00 0.00 80 1014.8
20260505140541 57 78 0.9 0.9 0.00 0.00 0.00 82 1014.5
20260505124955 57 165 0.9 1.7 0.00 0.00 0.00 82 1013.8
20260505124452 57 106 0.9 0.9 0.00 0.00 0.00 81 1013.8
20260505123948 57 121 0.0 0.0 0.00 0.00 0.00 81 1014.0
20260505123444 57 105 2.6 3.5 0.00 0.00 0.00 81 1014.0
20260505122940 57 113 0.9 1.7 0.00 0.00 0.00 81 1014.1
20260505122438 57 99 0.0 0.9 0.00 0.00 0.00 81 1013.9
20260505121934 57 125 0.9 0.9 0.00 0.00 0.00 81 1013.7
20260505121432 57 150 0.9 0.9 0.00 0.00 0.00 81 1013.9
20260505120927 57 215 1.7 2.6 0.00 0.00 0.00 81 1013.9
20260505120424 57 213 5.2 7.8 0.00 0.00 0.00 81 1013.9
20260505115923 57 80 1.7 2.6 0.00 0.00 0.00 80 1013.8
20260505115420 57 105 0.0 0.0 0.00 0.00 0.00 80 1013.9
20260505114918 57 227 2.6 2.6 0.00 0.00 0.00 79 1013.8
20260505114413 57 117 0.0 0.9 0.00 0.00 0.00 79 1013.9
20260505113910 57 105 3.5 3.5 0.00 0.00 0.00 79 1013.7
20260505113407 58 97 0.9 0.9 0.00 0.00 0.00 79 1013.8
20260505112903 58 128 0.9 0.9 0.00 0.00 0.00 79 1013.8
20260505112401 58 117 1.7 1.7 0.00 0.00 0.00 79 1013.6
20260505111856 58 92 2.6 5.2 0.00 0.00 0.00 79 1013.7
20260505111351 58 137 0.9 1.7 0.00 0.00 0.00 79 1013.7
20260505110847 58 116 0.0 0.9 0.00 0.00 0.00 79 1013.6
20260505110345 58 133 1.7 1.7 0.00 0.00 0.00 79 1013.3